Location: Unspecified
(54.1780°N, 0.0000°E)
Time: 18:07:53
(UTC+00:00)

Transit 2A - Pass Details

Date: 22 June 2019
Orbit: 597 x 962 km, 66.7° (Epoch: 19 August)

Event Time Altitude Azimuth Distance (km) Brightness Sun altitude
Rises 05:39:00 0° 303° (WNW) 3,605 9.1 15.6°
Reaches altitude 10° 05:42:04 10° 316° (NW) 2,620 8.6 16.0°
Maximum altitude 05:47:08 27° 12° (NNE) 1,642 8.3 16.7°
Drops below altitude 10° 05:51:53 10° 69° (ENE) 2,431 11.2 17.4°
Sets 05:54:37 0° 82° (E) 3,297 11.0 17.8°
